[[{"header":{"parameterUnit":"m.s-1","parameterCategory":2,"la1":30.2991,"la2":30.254,"lo1":-89.0895,"lo2":-89.0444,"dy":0.0017,"dx":0.0017,"nx":28,"ny":28,"refTime":"2024-03-18T09:00:00:Z","depth":"0","parameterNumber":2,"parameterNumberName":"U-component_of_CURRENTS"},"data":[0,0,0,0,0,0,0,0,0,0,0,0,0,0,0,0,0,0,0,0,0,0,0,0,0,0,0,0,0,0,0,0,0,0,0,0,0,0,0,0,0,0,0,0,0,0,0,0,0,0,0,0,0,0,0,0,0,0,-0.2027,-0.2028,0,-0.2056,-0.2056,-0.2056,-0.2037,-0.2036,-0.2035,-0.2035,-0.2006,-0.2006,-0.2006,0,0,0,0,0,0,0,0,0,0,0,0,0,-0.195,-0.1951,-0.2027,-0.2028,-0.2028,-0.2056,-0.2056,-0.2056,-0.2037,-0.2036,-0.2035,-0.2035,-0.2006,-0.2006,-0.2006,0,0,0,0,0,0,0,0,0,0,0,0,0,-0.1978,-0.1952,-0.2027,-0.2024,-0.2025,-0.2056,-0.2056,-0.2056,-0.2037,-0.2036,-0.2035,-0.2034,-0.2006,-0.2006,-0.2006,-0.2021,0,0,-0.2005,-0.2004,0,0,0,0,0,0,0,0,-0.1977,-0.1981,-0.2024,-0.2025,-0.2025,-0.2045,-0.2018,-0.2043,-0.2037,-0.2029,-0.2035,-0.2034,-0.2016,-0.2015,-0.2019,-0.202,-0.2018,-0.2004,-0.2004,-0.2004,-0.2004,0,0,0,0,0,0,0,-0.1975,-0.1979,-0.2035,-0.2025,-0.2026,-0.202,-0.2023,-0.2023,-0.2023,-0.2029,-0.2029,-0.2038,-0.2016,-0.2019,-0.2018,-0.2018,-0.2004,-0.2004,-0.2004,-0.2004,-0.203,-0.2031,0,0,0,0,0,0,-0.1979,-0.1978,-0.2034,-0.2036,-0.2002,-0.2023,-0.2026,-0.2036,-0.2025,-0.2024,-0.2038,-0.2037,-0.202,-0.2018,-0.2017,-0.2019,-0.2004,-0.2004,-0.2004,-0.2029,-0.203,-0.2031,0,0,0,0,0,0,-0.1978,-0.1984,-0.2033,-0.201,-0.2016,-0.2025,-0.2037,-0.2038,-0.2038,-0.2033,-0.2029,-0.2039,-0.2019,-0.2017,-0.2016,-0.2018,-0.2004,-0.2003,-0.2028,-0.203,-0.2031,-0.2034,0,0,0,0,0,0,-0.1975,-0.1984,-0.1985,-0.201,-0.2018,-0.2047,-0.2039,-0.2039,-0.2047,-0.2045,-0.2032,-0.2029,-0.2018,-0.2016,-0.2015,-0.2018,-0.2003,-0.2027,-0.2029,-0.203,-0.2033,-0.2035,-0.2037,0,0,0,0,0,-0.1973,-0.1982,-0.1984,-0.1991,-0.2022,-0.2048,-0.2051,-0.2052,-0.2048,-0.2048,-0.2043,-0.2029,-0.2026,-0.2017,-0.2015,-0.2018,-0.2026,-0.2028,-0.203,-0.2032,-0.2035,-0.2037,0,0,0,0,0,0,-0.1946,-0.1982,-0.1985,-0.2003,-0.2022,-0.2046,-0.2049,-0.2055,-0.2053,-0.2048,-0.2037,-0.2034,-0.2035,-0.2032,-0.2022,-0.2033,-0.2026,-0.2028,-0.2027,-0.203,-0.2033,-0.2029,-0.2003,0,0,0,0,0,-0.1944,-0.1957,-0.1991,-0.2001,-0.2014,-0.2032,-0.204,-0.2046,-0.2055,-0.2053,-0.2047,-0.2044,-0.2045,-0.2041,-0.2041,-0.2046,-0.2054,-0.205,-0.2052,-0.2054,-0.2052,-0.207,-0.2073,-0.2038,-0.2038,-0.2038,0,0,-0.1937,-0.1957,-0.1964,-0.1996,-0.201,-0.203,-0.2034,-0.2052,-0.206,-0.205,-0.2052,-0.2051,-0.2049,-0.2053,-0.2053,-0.2048,-0.2071,-0.2056,-0.2058,-0.2055,-0.2072,-0.2076,-0.2078,-0.2039,-0.2039,-0.2039,0,0,-0.1933,-0.1949,-0.1961,-0.1981,-0.201,-0.2024,-0.2031,-0.2057,-0.2059,-0.207,-0.2065,-0.2067,-0.2068,-0.2067,-0.2067,-0.2086,-0.2084,-0.2088,-0.2093,-0.211,-0.2112,-0.2115,-0.2139,-0.2144,-0.2088,-0.2088,-0.2088,0,-0.1919,-0.1938,-0.1966,-0.1986,-0.1998,-0.2023,-0.2036,-0.2052,-0.207,-0.2075,-0.207,-0.2085,-0.2076,-0.2087,-0.2087,-0.2089,-0.2102,-0.2077,-0.2111,-0.2114,-0.2116,-0.2141,-0.2146,-0.2088,-0.2088,-0.2088,-0.2088,0,-0.1927,-0.1942,-0.1953,-0.1983,-0.2001,-0.2016,-0.2049,-0.2062,-0.207,-0.2084,-0.2099,-0.2098,-0.2104,-0.2106,-0.2096,-0.2112,-0.2117,-0.2111,-0.2099,-0.2119,-0.2145,-0.215,-0.2089,-0.2089,-0.2089,-0.2088,0,0,-0.1894,-0.1946,-0.1947,-0.1957,-0.1997,-0.2013,-0.2038,-0.2064,-0.2086,-0.2098,-0.2123,-0.2117,-0.2121,-0.2122,-0.2119,-0.213,-0.2153,-0.2123,-0.2124,-0.214,-0.2198,-0.2184,-0.2188,-0.2151,-0.2151,-0.2152,-0.2212,0,-0.1883,-0.1909,-0.194,-0.1958,-0.1971,-0.2008,-0.2031,-0.2062,-0.2089,-0.2123,-0.2134,-0.2151,-0.2128,-0.2131,-0.2139,-0.2155,-0.2165,-0.2137,-0.2183,-0.2185,-0.2163,-0.2193,-0.2066,-0.2107,-0.2217,-0.2218,-0.2219,0,-0.187,-0.1889,-0.1903,-0.1944,-0.1955,-0.1969,-0.2011,-0.2037,-0.2097,-0.212,-0.2146,-0.2169,-0.2186,-0.2167,-0.2197,-0.2181,-0.2183,-0.2195,-0.2197,-0.2184,-0.2179,-0.2105,-0.2112,-0.2084,-0.2226,-0.2226,-0.2225,0,-0.1815,-0.1859,-0.1861,-0.1875,-0.1932,-0.194,-0.1963,-0.2024,-0.2055,-0.2115,-0.2155,-0.2185,-0.2208,-0.2218,-0.2236,-0.2216,-0.2285,-0.2262,-0.2255,-0.2255,-0.2156,-0.2145,-0.213,-0.2279,-0.2279,-0.2279,-0.2278,0,-0.1781,-0.1785,-0.1834,-0.1837,-0.1845,-0.1898,-0.1923,-0.1961,-0.2035,-0.208,-0.2137,-0.2187,-0.2219,-0.2269,-0.2265,-0.2286,-0.2306,-0.2263,-0.227,-0.2155,-0.2145,-0.2122,-0.2131,-0.2281,-0.228,-0.228,-0.228,0,-0.1714,-0.1752,-0.1755,-0.1803,-0.1817,-0.1816,-0.1883,-0.1916,-0.1991,-0.2059,-0.2078,-0.2191,-0.2248,-0.2295,-0.2335,-0.2325,-0.23,-0.2343,-0.2214,-0.2204,-0.215,-0.2164,-0.2171,-0.2103,-0.2339,-0.2339,-0.2339,0,-0.1678,-0.1671,-0.1708,-0.171,-0.1724,-0.1746,-0.1773,-0.1862,-0.1911,-0.2058,-0.2091,-0.2192,-0.2247,-0.2331,-0.2329,-0.2344,-0.2302,-0.2241,-0.2169,-0.2139,-0.2159,-0.2155,-0.2096,-0.2045,-0.2042,-0.204,-0.2039,0,-0.1592,-0.1603,-0.1608,-0.1617,-0.1633,-0.1664,-0.1713,-0.1756,-0.1877,-0.1956,-0.2067,-0.2129,-0.2228,-0.2217,-0.2257,-0.223,-0.216,-0.2201,-0.219,-0.1949,-0.1923,-0.1861,-0.2032,-0.2021,-0.2023,-0.2024,-0.2025,-0.2026,-0.151,-0.1491,-0.15,-0.1504,-0.1531,-0.1563,-0.1565,-0.1665,-0.1739,-0.186,-0.198,-0.2075,-0.2107,-0.2146,-0.2128,-0.2033,-0.2065,-0.1942,-0.1971,-0.1979,-0.1876,-0.2024,-0.2009,-0.2011,-0.2012,-0.2014,-0.2015,0,-0.1398,-0.1396,-0.1391,-0.1398,-0.1399,-0.1448,-0.1512,-0.1524,-0.1592,-0.1754,-0.1848,-0.1978,-0.1941,-0.1965,-0.1906,-0.1826,-0.1741,-0.1762,-0.1696,-0.1651,-0.1784,-0.1731,-0.163,-0.163,-0.163,-0.163,-0.163,-0.163,-0.1338,-0.1298,-0.1305,-0.1264,-0.1273,-0.1247,-0.1263,-0.1313,-0.1409,-0.1554,-0.1706,-0.1861,-0.1895,-0.195,-0.1807,-0.1695,-0.1629,-0.1569,-0.1609,-0.1677,-0.1694,-0.1711,-0.1661,-0.1546,-0.1546,-0.1365,-0.1364,-0.1363]},{"header":{"parameterUnit":"m.s-1","parameterCategory":2,"la1":30.2991,"la2":30.254,"lo1":-89.0895,"lo2":-89.0444,"dy":0.0017,"dx":0.0017,"nx":28,"ny":28,"refTime":"2024-03-18T09:00:00:Z","depth":"0","parameterNumber":3,"parameterNumberName":"V-component_of_CURRENTS"},"data":[0,0,0,0,0,0,0,0,0,0,0,0,0,0,0,0,0,0,0,0,0,0,0,0,0,0,0,0,0,0,0,0,0,0,0,0,0,0,0,0,0,0,0,0,0,0,0,0,0,0,0,0,0,0,0,0,0,0,-0.0344,-0.0342,0,-0.022,-0.0219,-0.0217,-0.0154,-0.0154,-0.0154,-0.0154,-0.003,-0.0027,-0.0024,0,0,0,0,0,0,0,0,0,0,0,0,0,-0.0439,-0.0438,-0.0344,-0.0342,-0.0341,-0.022,-0.0219,-0.0217,-0.0154,-0.0154,-0.0154,-0.0154,-0.0031,-0.0027,-0.0023,0,0,0,0,0,0,0,0,0,0,0,0,0,-0.0366,-0.0438,-0.0344,-0.0295,-0.0289,-0.0221,-0.0218,-0.0216,-0.0154,-0.0154,-0.0154,-0.0154,-0.0032,-0.0027,-0.0023,0.0004,0,0,-0.0008,-0.0006,0,0,0,0,0,0,0,0,-0.037,-0.0362,-0.0303,-0.0298,-0.0291,-0.0202,-0.0206,-0.0142,-0.0154,-0.0206,-0.0154,-0.0154,-0.0087,-0.0078,-0.0056,0.001,0.0015,-0.0008,-0.0005,-0.0003,-0.0001,0,0,0,0,0,0,0,-0.0375,-0.0367,-0.0295,-0.0302,-0.0294,-0.0248,-0.0239,-0.0194,-0.0149,-0.0202,-0.0197,-0.0182,-0.0084,-0.006,-0.0052,0.0017,-0.0008,-0.0003,-0.0,0.0001,0.011,0.011,0,0,0,0,0,0,-0.0394,-0.0372,-0.0299,-0.0292,-0.033,-0.0247,-0.0236,-0.0231,-0.015,-0.0137,-0.0182,-0.0179,-0.0069,-0.0058,-0.0048,-0.001,-0.0003,0.0002,0.0005,0.011,0.011,0.011,0,0,0,0,0,0,-0.0397,-0.0389,-0.0304,-0.0328,-0.0314,-0.0246,-0.0241,-0.0229,-0.0204,-0.0135,-0.0122,-0.0169,-0.0068,-0.0054,-0.0007,-0.0005,0.0004,0.0008,0.011,0.011,0.011,0.0064,0,0,0,0,0,0,-0.04,-0.0391,-0.0392,-0.033,-0.0313,-0.0269,-0.024,-0.0227,-0.0195,-0.019,-0.012,-0.0108,-0.0067,-0.0015,-0.0003,0.0002,0.0012,0.011,0.011,0.011,0.0065,0.0062,0.0059,0,0,0,0,0,-0.0404,-0.0408,-0.0393,-0.0384,-0.0318,-0.0269,-0.0257,-0.0208,-0.0195,-0.0185,-0.0137,-0.011,-0.0007,-0.0011,0.0004,0.0009,0.011,0.011,0.011,0.0066,0.0063,0.0059,0,0,0,0,0,0,-0.0446,-0.04,-0.0383,-0.0372,-0.0327,-0.0258,-0.0245,-0.0212,-0.0166,-0.0163,-0.0103,-0.0088,-0.0049,-0.0014,-0.002,0.0039,0.0054,0.0057,0.0016,0.0013,0.001,-0.0004,0.0016,0,0,0,0,0,-0.0458,-0.0452,-0.0396,-0.0386,-0.0371,-0.031,-0.0284,-0.0249,-0.0199,-0.0179,-0.013,-0.0081,-0.0037,-0.0009,0.0033,0.0071,0.0097,0.0082,0.0079,0.0076,0.0074,0.0112,0.0112,0.011,0.011,0.011,0,0,-0.0471,-0.0444,-0.044,-0.0395,-0.036,-0.0334,-0.0295,-0.026,-0.0233,-0.0173,-0.0132,-0.009,-0.0031,0.001,0.003,0.004,0.009,0.0076,0.0073,0.0073,0.0112,0.0112,0.0112,0.011,0.011,0.011,0,0,-0.0491,-0.0474,-0.0474,-0.0445,-0.0395,-0.0353,-0.0347,-0.0284,-0.0254,-0.0208,-0.0162,-0.0119,-0.005,-0.0005,0.0026,0.0033,0.0069,0.0043,0.0025,0.0061,0.0062,0.0063,0.0091,0.0094,0.0045,0.0045,0.0045,0,-0.0508,-0.0498,-0.0464,-0.0455,-0.043,-0.0368,-0.0354,-0.0314,-0.0241,-0.0218,-0.0205,-0.0106,-0.0056,-0.0001,0.0003,0.0028,0.0049,0.0033,0.0057,0.0058,0.006,0.0089,0.0093,0.0043,0.0043,0.0044,0.0044,0,-0.0524,-0.0515,-0.0514,-0.0483,-0.0453,-0.0432,-0.0374,-0.0345,-0.0305,-0.0258,-0.0205,-0.0138,-0.0081,-0.0058,-0.002,0.0017,0.0028,0.0044,0.0063,0.0057,0.0088,0.0094,0.004,0.0041,0.0041,0.0042,0,0,-0.0562,-0.0532,-0.0531,-0.0525,-0.0467,-0.0445,-0.041,-0.0355,-0.0341,-0.0273,-0.0246,-0.0162,-0.013,-0.0094,-0.0043,-0.0005,0.0028,0.0021,0.0024,0.0044,0.0101,0.0144,0.0155,0.0046,0.0047,0.0048,0.0116,0,-0.058,-0.0577,-0.0549,-0.0537,-0.0529,-0.0475,-0.0452,-0.0398,-0.0349,-0.0313,-0.0237,-0.0195,-0.0142,-0.0121,-0.0072,0.0003,0.0042,0.0008,0.0109,0.0112,0.0147,0.0162,0.0157,0.0221,0.0122,0.0123,0.0124,0,-0.0601,-0.0595,-0.0591,-0.0571,-0.0565,-0.0547,-0.0505,-0.0473,-0.0406,-0.0376,-0.0316,-0.026,-0.0181,-0.0149,-0.0022,-0.0048,0.0021,0.0077,0.0082,0.0142,0.0166,0.0213,0.0235,0.0404,0.0133,0.0132,0.0132,0,-0.0638,-0.0624,-0.0623,-0.0614,-0.0581,-0.0572,-0.0547,-0.0491,-0.0478,-0.0413,-0.0406,-0.0303,-0.0263,-0.0157,-0.0027,-0.0027,0.0103,0.0117,0.022,0.0223,0.0251,0.0255,0.0445,0.0197,0.0197,0.0196,0.0196,0,-0.0663,-0.0665,-0.0646,-0.0648,-0.0657,-0.0615,-0.0616,-0.0582,-0.0545,-0.0546,-0.0444,-0.0427,-0.0265,-0.0168,-0.0047,0.011,0.0092,0.0222,0.0249,0.0234,0.0237,0.0411,0.0475,0.0199,0.0198,0.0198,0.0198,0,-0.0694,-0.0682,-0.0686,-0.0672,-0.0673,-0.0675,-0.0669,-0.0678,-0.0635,-0.0634,-0.0621,-0.0514,-0.0386,-0.0218,-0.0046,0.0078,0.032,0.028,0.0252,0.0275,0.0535,0.0595,0.0783,0.0872,0.0408,0.0409,0.0411,0,-0.0702,-0.0707,-0.0713,-0.0732,-0.0726,-0.0734,-0.0752,-0.0722,-0.0734,-0.0694,-0.0703,-0.0583,-0.0506,-0.0218,0.0025,0.0256,0.0375,0.0391,0.0402,0.0563,0.0649,0.0687,0.075,0.0414,0.0415,0.0416,0.0417,0,-0.0716,-0.0719,-0.0729,-0.0777,-0.0803,-0.0838,-0.0856,-0.0885,-0.0865,-0.087,-0.0846,-0.078,-0.049,-0.0217,0.011,0.0247,0.0512,0.042,0.0597,0.0685,0.0728,0.082,0.0352,0.0426,0.0425,0.0424,0.0424,0.0424,-0.0722,-0.0741,-0.0769,-0.0814,-0.0862,-0.0933,-0.0975,-0.1012,-0.1051,-0.1068,-0.0971,-0.0875,-0.042,0.0045,0.0235,0.0643,0.0613,0.0747,0.0807,0.0833,0.0924,0.048,0.0582,0.0582,0.0582,0.0582,0.0582,0,-0.0724,-0.0759,-0.0808,-0.0876,-0.0957,-0.0964,-0.1044,-0.1099,-0.1173,-0.1149,-0.1115,-0.0704,-0.0261,0.019,0.0791,0.1021,0.1067,0.1122,0.1178,0.1226,0.0843,0.0851,0.1005,0.1005,0.1005,0.1005,0.1004,0.1004,-0.0727,-0.0774,-0.0809,-0.0941,-0.1002,-0.1112,-0.1165,-0.1245,-0.1247,-0.1185,-0.1009,-0.0863,-0.0146,0.0821,0.1374,0.1409,0.1606,0.1563,0.1698,0.1438,0.1408,0.1379,0.1406,0.1674,0.1675,0.2047,0.205,0.2053]}],[{"header":{"parameterUnit":"m.s-1","parameterCategory":2,"la1":30.2991,"la2":30.254,"lo1":-89.0895,"lo2":-89.0444,"dy":0.0017,"dx":0.0017,"nx":28,"ny":28,"refTime":"2024-03-18T09:00:00:Z","depth":"2","parameterNumber":2,"parameterNumberName":"U-component_of_CURRENTS"},"data":[0,0,0,0,0,0,0,0,0,0,0,0,0,0,0,0,0,0,0,0,0,0,0,0,0,0,0,0,0,0,0,0,0,0,0,0,0,0,0,0,0,0,0,0,0,0,0,0,0,0,0,0,0,0,0,0,0,0,-0.1981,-0.1982,0,-0.2012,-0.2012,-0.2012,-0.1992,-0.1992,-0.1991,-0.1991,-0.1964,-0.1963,-0.1963,0,0,0,0,0,0,0,0,0,0,0,0,0,-0.1905,-0.1906,-0.1981,-0.1982,-0.1983,-0.2012,-0.2012,-0.2012,-0.1992,-0.1992,-0.1991,-0.1991,-0.1964,-0.1963,-0.1963,0,0,0,0,0,0,0,0,0,0,0,0,0,-0.1933,-0.1907,-0.1981,-0.198,-0.1981,-0.2012,-0.2012,-0.2012,-0.1993,-0.1992,-0.1991,-0.1991,-0.1964,-0.1963,-0.1963,-0.1974,0,0,-0.1962,-0.1961,0,0,0,0,0,0,0,0,-0.1931,-0.1935,-0.198,-0.198,-0.1981,-0.2002,-0.1975,-0.1998,-0.1993,-0.1983,-0.1991,-0.199,-0.1975,-0.1973,-0.1974,-0.1973,-0.1972,-0.1961,-0.1961,-0.1961,-0.1961,0,0,0,0,0,0,0,-0.1929,-0.1933,-0.1988,-0.1981,-0.1982,-0.1979,-0.1981,-0.1979,-0.1977,-0.1984,-0.1984,-0.1995,-0.1974,-0.1975,-0.1974,-0.1971,-0.1961,-0.1961,-0.1961,-0.1961,-0.1978,-0.1979,0,0,0,0,0,0,-0.1936,-0.1932,-0.1988,-0.199,-0.196,-0.1981,-0.1984,-0.1992,-0.1979,-0.1978,-0.1996,-0.1994,-0.1976,-0.1974,-0.1973,-0.1975,-0.1961,-0.1961,-0.196,-0.1977,-0.1978,-0.1979,0,0,0,0,0,0,-0.1935,-0.1941,-0.1986,-0.1965,-0.1972,-0.1984,-0.1993,-0.1993,-0.1994,-0.1989,-0.1986,-0.1997,-0.1975,-0.1973,-0.1971,-0.1974,-0.196,-0.196,-0.1976,-0.1977,-0.1978,-0.1987,0,0,0,0,0,0,-0.1932,-0.194,-0.1942,-0.1966,-0.1973,-0.2002,-0.1994,-0.1994,-0.2005,-0.2002,-0.1989,-0.1986,-0.1975,-0.1972,-0.1971,-0.1974,-0.196,-0.1975,-0.1977,-0.1978,-0.1986,-0.1989,-0.1991,0,0,0,0,0,-0.1929,-0.1939,-0.1942,-0.1949,-0.1978,-0.2003,-0.2005,-0.2008,-0.2005,-0.2005,-0.1999,-0.1986,-0.198,-0.1972,-0.1971,-0.1973,-0.1975,-0.1976,-0.1978,-0.1985,-0.1988,-0.1991,0,0,0,0,0,0,-0.1905,-0.1939,-0.1942,-0.1961,-0.1979,-0.2001,-0.2006,-0.2012,-0.2009,-0.2005,-0.1994,-0.199,-0.199,-0.1986,-0.1978,-0.1985,-0.1976,-0.1978,-0.1982,-0.1985,-0.1987,-0.1986,-0.1959,0,0,0,0,0,-0.1904,-0.1917,-0.1949,-0.196,-0.1972,-0.1989,-0.1998,-0.2005,-0.2013,-0.201,-0.2003,-0.1999,-0.1997,-0.1994,-0.199,-0.1995,-0.2002,-0.1998,-0.2,-0.2002,-0.2001,-0.2019,-0.2022,-0.1984,-0.1984,-0.1984,0,0,-0.1899,-0.1918,-0.1926,-0.1956,-0.1968,-0.1985,-0.1991,-0.201,-0.2018,-0.2008,-0.2007,-0.2005,-0.2001,-0.2002,-0.2002,-0.1997,-0.2019,-0.2004,-0.2005,-0.2004,-0.2021,-0.2024,-0.2028,-0.1985,-0.1985,-0.1985,0,0,-0.1897,-0.1912,-0.1923,-0.1941,-0.197,-0.1982,-0.199,-0.2014,-0.2017,-0.2026,-0.202,-0.2023,-0.2019,-0.2017,-0.2016,-0.2033,-0.203,-0.2032,-0.204,-0.2057,-0.206,-0.2063,-0.2087,-0.2091,-0.2033,-0.2033,-0.2033,0,-0.1887,-0.1902,-0.1928,-0.1945,-0.1956,-0.1982,-0.1992,-0.2007,-0.2025,-0.2032,-0.2025,-0.2036,-0.2026,-0.2036,-0.2036,-0.2036,-0.2048,-0.2027,-0.206,-0.2062,-0.2065,-0.2088,-0.2093,-0.2034,-0.2034,-0.2034,-0.2034,0,-0.1893,-0.1905,-0.1914,-0.1938,-0.1955,-0.1969,-0.2,-0.2014,-0.2022,-0.2037,-0.2051,-0.2049,-0.2054,-0.2055,-0.2045,-0.2062,-0.2066,-0.2059,-0.205,-0.2069,-0.2093,-0.2098,-0.2035,-0.2035,-0.2034,-0.2034,0,0,-0.1865,-0.1907,-0.1908,-0.1915,-0.195,-0.1966,-0.1988,-0.2014,-0.2037,-0.2049,-0.2074,-0.2067,-0.2073,-0.2073,-0.2071,-0.2084,-0.2109,-0.2076,-0.2076,-0.2095,-0.2153,-0.2136,-0.214,-0.2106,-0.2107,-0.2107,-0.2166,0,-0.1852,-0.1872,-0.19,-0.1913,-0.1921,-0.1957,-0.1978,-0.201,-0.2037,-0.2072,-0.2085,-0.2101,-0.208,-0.2084,-0.2094,-0.2109,-0.2121,-0.2094,-0.2136,-0.2137,-0.2115,-0.2144,-0.1916,-0.1947,-0.2171,-0.2172,-0.2172,0,-0.1837,-0.1853,-0.1862,-0.1898,-0.1907,-0.1919,-0.1961,-0.1987,-0.2048,-0.2071,-0.2099,-0.2121,-0.2142,-0.2123,-0.2155,-0.2138,-0.214,-0.2152,-0.2154,-0.2136,-0.2128,-0.1962,-0.1947,-0.2181,-0.218,-0.2179,-0.2179,0,-0.1784,-0.1821,-0.1821,-0.1833,-0.1883,-0.1892,-0.1916,-0.1976,-0.2008,-0.2069,-0.2108,-0.214,-0.2164,-0.2175,-0.2193,-0.2173,-0.2241,-0.2218,-0.2208,-0.2207,-0.202,-0.2002,-0.2236,-0.2236,-0.2236,-0.2236,-0.2236,0,-0.1748,-0.1749,-0.1796,-0.1795,-0.1805,-0.1853,-0.188,-0.1918,-0.1991,-0.2036,-0.2093,-0.2141,-0.2176,-0.2224,-0.2221,-0.224,-0.2261,-0.2217,-0.2221,-0.2019,-0.2001,-0.2205,-0.22,-0.2238,-0.2238,-0.2237,-0.2237,0,-0.1681,-0.1716,-0.1716,-0.1761,-0.1776,-0.1776,-0.1842,-0.1874,-0.1949,-0.2015,-0.2035,-0.2145,-0.2201,-0.2248,-0.2288,-0.2277,-0.2296,-0.2292,-0.2063,-0.2039,-0.2243,-0.2238,-0.2285,-0.2285,-0.2285,-0.2284,-0.2284,0,-0.1643,-0.1635,-0.1671,-0.1674,-0.1687,-0.171,-0.1736,-0.1824,-0.1871,-0.2013,-0.2045,-0.2143,-0.2194,-0.2274,-0.2255,-0.2263,-0.2308,-0.2078,-0.1994,-0.2248,-0.2248,-0.2244,-0.224,-0.1751,-0.1746,-0.1743,-0.174,0,-0.1557,-0.1569,-0.1573,-0.1583,-0.1599,-0.163,-0.1677,-0.1717,-0.1835,-0.191,-0.2015,-0.2072,-0.215,-0.2073,-0.2104,-0.2069,-0.2059,-0.2008,-0.2322,-0.1787,-0.1753,-0.1751,-0.1762,-0.1707,-0.1711,-0.1713,-0.1715,-0.1716,-0.1478,-0.1461,-0.147,-0.1475,-0.1502,-0.153,-0.1531,-0.1621,-0.1689,-0.1787,-0.1905,-0.1937,-0.1947,-0.1893,-0.1823,-0.1764,-0.1915,-0.1807,-0.1814,-0.1825,-0.1766,-0.1735,-0.1676,-0.1678,-0.1681,-0.1683,-0.1685,0,-0.1371,-0.137,-0.1365,-0.1372,-0.137,-0.1419,-0.1478,-0.1477,-0.1532,-0.1642,-0.1714,-0.1582,-0.1543,-0.1559,-0.1416,-0.1417,-0.135,-0.1348,-0.1234,-0.1267,-0.1297,-0.1207,-0.097,-0.0968,-0.0966,-0.0964,0,0,-0.1313,-0.1274,-0.128,-0.1238,-0.1248,-0.1217,-0.123,-0.1255,-0.1307,-0.1334,-0.1358,-0.1506,-0.1535,-0.1269,-0.1195,-0.1061,-0.1151,-0.0999,-0.1569,-0.1468,-0.1495,-0.1555,-0.1455,0,0,0,0,0]},{"header":{"parameterUnit":"m.s-1","parameterCategory":2,"la1":30.2991,"la2":30.254,"lo1":-89.0895,"lo2":-89.0444,"dy":0.0017,"dx":0.0017,"nx":28,"ny":28,"refTime":"2024-03-18T09:00:00:Z","depth":"2","parameterNumber":3,"parameterNumberName":"V-component_of_CURRENTS"},"data":[0,0,0,0,0,0,0,0,0,0,0,0,0,0,0,0,0,0,0,0,0,0,0,0,0,0,0,0,0,0,0,0,0,0,0,0,0,0,0,0,0,0,0,0,0,0,0,0,0,0,0,0,0,0,0,0,0,0,-0.0188,-0.0187,0,-0.0077,-0.0076,-0.0074,-0.0018,-0.0018,-0.0018,-0.0018,0.0099,0.0102,0.0105,0,0,0,0,0,0,0,0,0,0,0,0,0,-0.028,-0.0279,-0.0189,-0.0187,-0.0186,-0.0077,-0.0076,-0.0074,-0.0018,-0.0018,-0.0018,-0.0018,0.0098,0.0102,0.0105,0,0,0,0,0,0,0,0,0,0,0,0,0,-0.0211,-0.0279,-0.0189,-0.0145,-0.014,-0.0077,-0.0076,-0.0074,-0.0018,-0.0018,-0.0018,-0.0018,0.0097,0.0101,0.0106,0.0136,0,0,0.012,0.0122,0,0,0,0,0,0,0,0,-0.0215,-0.0208,-0.0153,-0.0148,-0.0142,-0.0062,-0.0065,-0.0004,-0.0018,-0.0064,-0.0018,-0.0018,0.0045,0.0054,0.0076,0.0141,0.0146,0.0121,0.0124,0.0126,0.0127,0,0,0,0,0,0,0,-0.022,-0.0212,-0.0144,-0.0152,-0.0145,-0.0106,-0.0097,-0.0053,-0.001,-0.006,-0.0055,-0.0044,0.0048,0.0071,0.0079,0.0148,0.0121,0.0125,0.0128,0.0129,0.0234,0.0234,0,0,0,0,0,0,-0.0239,-0.0217,-0.0147,-0.014,-0.018,-0.0105,-0.0095,-0.0087,-0.001,0.0001,-0.0044,-0.0042,0.0063,0.0074,0.0084,0.0115,0.0126,0.013,0.0133,0.0234,0.0234,0.0234,0,0,0,0,0,0,-0.0242,-0.0234,-0.0152,-0.0176,-0.0163,-0.0104,-0.0096,-0.0085,-0.0064,0.0001,0.0013,-0.0035,0.0064,0.0077,0.012,0.012,0.0132,0.0136,0.0234,0.0234,0.0234,0.0182,0,0,0,0,0,0,-0.0245,-0.0236,-0.0238,-0.0178,-0.0163,-0.0122,-0.0095,-0.0083,-0.0057,-0.0053,0.0014,0.0025,0.0065,0.0113,0.0125,0.0126,0.014,0.0234,0.0234,0.0234,0.0184,0.018,0.0177,0,0,0,0,0,-0.0248,-0.0253,-0.0239,-0.0231,-0.0168,-0.0122,-0.0111,-0.0068,-0.0057,-0.0049,-0.0004,0.0022,0.0121,0.0117,0.0131,0.0134,0.0234,0.0234,0.0234,0.0185,0.0181,0.0177,0,0,0,0,0,0,-0.0291,-0.0246,-0.023,-0.022,-0.0178,-0.0113,-0.0104,-0.0074,-0.0031,-0.0029,0.0029,0.0043,0.0078,0.0113,0.0108,0.0163,0.018,0.0182,0.0138,0.0134,0.0131,0.0118,0.0144,0,0,0,0,0,-0.0304,-0.0297,-0.0243,-0.0236,-0.0221,-0.0165,-0.0142,-0.0111,-0.0064,-0.0045,0.0001,0.0048,0.009,0.0116,0.0157,0.0193,0.022,0.0202,0.0198,0.0195,0.0194,0.0231,0.0231,0.0234,0.0234,0.0234,0,0,-0.0318,-0.0292,-0.0288,-0.0245,-0.0212,-0.0188,-0.0151,-0.0122,-0.0099,-0.0039,-0.0003,0.0038,0.0096,0.0133,0.0152,0.0163,0.0208,0.0195,0.0192,0.0192,0.0231,0.0231,0.023,0.0234,0.0234,0.0234,0,0,-0.0341,-0.0323,-0.0323,-0.0296,-0.0251,-0.0212,-0.0208,-0.0147,-0.0121,-0.0078,-0.0035,0.0005,0.0072,0.0115,0.0145,0.0149,0.0185,0.0158,0.0137,0.0173,0.0173,0.0173,0.0201,0.0204,0.0159,0.0159,0.0159,0,-0.0361,-0.035,-0.0315,-0.0306,-0.0285,-0.0228,-0.0216,-0.0179,-0.0111,-0.0091,-0.0078,0.0017,0.0065,0.0115,0.0117,0.0142,0.0163,0.0147,0.0168,0.0169,0.017,0.0198,0.0202,0.0157,0.0157,0.0157,0.0158,0,-0.0378,-0.0369,-0.0368,-0.0338,-0.0312,-0.0293,-0.0239,-0.0213,-0.0177,-0.0134,-0.0086,-0.002,0.0034,0.0055,0.0092,0.0125,0.0137,0.0155,0.0175,0.0166,0.0197,0.0202,0.0153,0.0154,0.0155,0.0155,0,0,-0.0419,-0.0387,-0.0387,-0.0381,-0.0327,-0.0309,-0.0278,-0.0229,-0.0217,-0.0154,-0.013,-0.0051,-0.002,0.0015,0.0063,0.0101,0.013,0.0128,0.0131,0.0149,0.0201,0.0239,0.0248,0.0149,0.015,0.015,0.0216,0,-0.044,-0.0438,-0.0409,-0.0401,-0.0393,-0.0343,-0.0323,-0.0276,-0.023,-0.0196,-0.0124,-0.0085,-0.0033,-0.0015,0.0032,0.0107,0.0143,0.011,0.0213,0.0216,0.0245,0.0255,0.0209,0.0267,0.0222,0.0223,0.0223,0,-0.0462,-0.0457,-0.0456,-0.0437,-0.0432,-0.0418,-0.0383,-0.0355,-0.0292,-0.0264,-0.0207,-0.0152,-0.0077,-0.0045,0.0079,0.0054,0.0121,0.0177,0.0181,0.0238,0.0263,0.0271,0.0279,0.0233,0.0232,0.0231,0.0231,0,-0.0502,-0.0489,-0.0491,-0.0483,-0.0452,-0.0448,-0.0426,-0.0375,-0.0364,-0.0303,-0.0297,-0.0197,-0.0159,-0.0055,0.0072,0.0072,0.0199,0.0215,0.0311,0.0314,0.0308,0.0309,0.0292,0.0292,0.0292,0.0292,0.0292,0,-0.0527,-0.0532,-0.0516,-0.0518,-0.0533,-0.0493,-0.0499,-0.0468,-0.0434,-0.0436,-0.0336,-0.032,-0.0162,-0.0066,0.0052,0.0203,0.0187,0.0312,0.0338,0.0289,0.0288,0.0286,0.0284,0.0294,0.0294,0.0293,0.0293,0,-0.0559,-0.0548,-0.0556,-0.0545,-0.0548,-0.0556,-0.0553,-0.0564,-0.0523,-0.0524,-0.0511,-0.0407,-0.0283,-0.0119,0.005,0.017,0.0313,0.0365,0.0296,0.0314,0.0407,0.0402,0.0481,0.0483,0.0485,0.0486,0.0488,0,-0.0568,-0.0575,-0.0587,-0.0608,-0.0604,-0.0617,-0.0636,-0.0609,-0.0621,-0.0582,-0.0591,-0.0476,-0.04,-0.0122,0.0107,0.0328,0.0335,0.0424,0.0429,0.0411,0.0428,0.0421,0.0413,0.0393,0.0393,0.0393,0.0394,0,-0.0585,-0.0591,-0.0604,-0.0654,-0.0683,-0.072,-0.074,-0.0768,-0.0748,-0.0753,-0.073,-0.0665,-0.0393,-0.015,0.0161,0.0286,0.0392,0.0438,0.0437,0.0358,0.0335,0.035,0.0344,0.0396,0.0396,0.0395,0.0395,0.0395,-0.0596,-0.0618,-0.0648,-0.0696,-0.0746,-0.0814,-0.0856,-0.0887,-0.0924,-0.0921,-0.0836,-0.0722,-0.0451,-0.0026,0.0204,0.0431,0.0431,0.0494,0.049,0.0486,0.047,0.0452,0.0531,0.0532,0.0532,0.0532,0.0533,0,-0.0602,-0.064,-0.0691,-0.0759,-0.0836,-0.0848,-0.0924,-0.0961,-0.1025,-0.0977,-0.093,-0.0665,-0.0367,-0.0078,0.0286,0.0507,0.048,0.0534,0.0462,0.0458,0.0455,0.0435,0.0488,0.0489,0.0489,0.049,0,0,-0.0608,-0.0656,-0.0689,-0.0817,-0.0882,-0.0983,-0.1034,-0.108,-0.1058,-0.1036,-0.0936,-0.0744,-0.038,-0.0128,0.0143,0.0332,0.0334,0.0338,0.0349,0.0227,0.0222,0.0406,0.0368,0,0,0,0,0]}],[{"header":{"parameterUnit":"m.s-1","parameterCategory":2,"la1":30.2991,"la2":30.254,"lo1":-89.0895,"lo2":-89.0444,"dy":0.0017,"dx":0.0017,"nx":28,"ny":28,"refTime":"2024-03-18T09:00:00:Z","depth":"4","parameterNumber":2,"parameterNumberName":"U-component_of_CURRENTS"},"data":[0,0,0,0,0,0,0,0,0,0,0,0,0,0,0,0,0,0,0,0,0,0,0,0,0,0,0,0,0,0,0,0,0,0,0,0,0,0,0,0,0,0,0,0,0,0,0,0,0,0,0,0,0,0,0,0,0,0,-0.1182,-0.1183,0,-0.1244,-0.1245,-0.1246,-0.1301,-0.1302,-0.1303,-0.1303,-0.1362,-0.1363,-0.1364,0,0,0,0,0,0,0,0,0,0,0,0,0,-0.111,-0.1111,-0.1182,-0.1183,-0.1184,-0.1244,-0.1245,-0.1246,-0.1301,-0.1302,-0.1303,-0.1303,-0.1361,-0.1363,-0.1364,0,0,0,0,0,0,0,0,0,0,0,0,0,-0.1154,-0.1111,-0.1182,-0.1218,-0.1222,-0.1244,-0.1245,-0.1246,-0.1301,-0.1302,-0.1303,-0.1304,-0.1361,-0.1362,-0.1364,-0.1356,0,0,-0.1369,-0.1369,0,0,0,0,0,0,0,0,-0.1152,-0.1157,-0.1212,-0.1215,-0.122,-0.1265,-0.1241,-0.1282,-0.1301,-0.1272,-0.1303,-0.1304,-0.1328,-0.1332,-0.1343,-0.1359,-0.1361,-0.1369,-0.137,-0.137,-0.1371,0,0,0,0,0,0,0,-0.1148,-0.1154,-0.1208,-0.1213,-0.1217,-0.123,-0.1237,-0.1249,-0.1295,-0.1275,-0.1279,-0.1284,-0.133,-0.1342,-0.1345,-0.1362,-0.1369,-0.137,-0.1371,-0.1372,-0.1469,-0.1471,0,0,0,0,0,0,-0.1138,-0.1152,-0.1206,-0.121,-0.1186,-0.123,-0.1239,-0.125,-0.1295,-0.1302,-0.1283,-0.1286,-0.1339,-0.1343,-0.1347,-0.1424,-0.137,-0.1372,-0.1373,-0.1468,-0.147,-0.1472,0,0,0,0,0,0,-0.1136,-0.1143,-0.1203,-0.1181,-0.1189,-0.1231,-0.1243,-0.1251,-0.1288,-0.1301,-0.1309,-0.1314,-0.1339,-0.1345,-0.1387,-0.1423,-0.1372,-0.1374,-0.1466,-0.1468,-0.1471,-0.1523,0,0,0,0,0,0,-0.1134,-0.1142,-0.1156,-0.118,-0.119,-0.1237,-0.1243,-0.1252,-0.1287,-0.1293,-0.1329,-0.1335,-0.1341,-0.1385,-0.1389,-0.1424,-0.1375,-0.1464,-0.1467,-0.147,-0.1519,-0.1527,-0.1534,0,0,0,0,0,-0.1131,-0.1146,-0.1156,-0.1163,-0.1205,-0.1238,-0.1245,-0.1277,-0.1288,-0.1311,-0.1339,-0.1335,-0.1408,-0.1387,-0.1391,-0.1428,-0.1462,-0.1466,-0.147,-0.1516,-0.1526,-0.1534,0,0,0,0,0,0,-0.1121,-0.1153,-0.1165,-0.1189,-0.1219,-0.1247,-0.127,-0.1288,-0.1328,-0.1339,-0.1351,-0.1359,-0.1411,-0.1411,-0.1388,-0.1467,-0.1436,-0.1441,-0.147,-0.1479,-0.1486,-0.1475,-0.1376,0,0,0,0,0,-0.1122,-0.1144,-0.1175,-0.1196,-0.1213,-0.1244,-0.1264,-0.1288,-0.1319,-0.1339,-0.1365,-0.1395,-0.1425,-0.1445,-0.1468,-0.1506,-0.1499,-0.1534,-0.1542,-0.1548,-0.1543,-0.1562,-0.157,-0.1484,-0.1484,-0.1484,0,0,-0.1128,-0.1143,-0.116,-0.1195,-0.1221,-0.126,-0.126,-0.1299,-0.1339,-0.1336,-0.1403,-0.142,-0.1441,-0.149,-0.1514,-0.1498,-0.1574,-0.1553,-0.1558,-0.1549,-0.1567,-0.1575,-0.1582,-0.1487,-0.1486,-0.1486,0,0,-0.1139,-0.1162,-0.1186,-0.1215,-0.1254,-0.1279,-0.1296,-0.134,-0.1372,-0.1427,-0.144,-0.1477,-0.1526,-0.1548,-0.1563,-0.1622,-0.161,-0.1637,-0.1667,-0.1686,-0.1693,-0.1699,-0.1715,-0.1722,-0.1642,-0.1642,-0.1642,0,-0.1144,-0.1176,-0.1198,-0.1228,-0.1258,-0.1293,-0.1332,-0.137,-0.1426,-0.1449,-0.1459,-0.1536,-0.1553,-0.1606,-0.1631,-0.1638,-0.1644,-0.1631,-0.1694,-0.17,-0.1705,-0.172,-0.1727,-0.1645,-0.1645,-0.1644,-0.1644,0,-0.117,-0.1207,-0.1224,-0.1278,-0.1314,-0.1353,-0.1405,-0.1449,-0.1488,-0.152,-0.1584,-0.1611,-0.1649,-0.1671,-0.1671,-0.1721,-0.1713,-0.1699,-0.1667,-0.1716,-0.173,-0.1736,-0.1649,-0.1648,-0.1647,-0.1646,0,0,-0.1148,-0.1228,-0.1237,-0.1273,-0.1344,-0.1376,-0.1445,-0.1507,-0.155,-0.1608,-0.166,-0.1714,-0.1717,-0.1734,-0.1743,-0.1764,-0.1811,-0.175,-0.1749,-0.1758,-0.1856,-0.1737,-0.1732,-0.1809,-0.181,-0.1811,-0.1856,0,-0.1163,-0.1223,-0.1265,-0.1342,-0.1382,-0.1438,-0.1496,-0.1557,-0.1611,-0.1672,-0.1705,-0.1755,-0.1746,-0.1766,-0.1789,-0.1806,-0.1828,-0.18,-0.1814,-0.1814,-0.1695,-0.1735,-0.1814,-0.186,-0.1861,-0.1862,-0.1863,0,-0.1171,-0.1212,-0.1282,-0.1371,-0.1394,-0.1448,-0.1537,-0.1592,-0.1675,-0.1712,-0.1762,-0.179,-0.1839,-0.182,-0.1868,-0.1852,-0.1855,-0.1864,-0.1866,-0.1735,-0.1705,-0.1799,-0.1874,-0.1873,-0.1872,-0.1871,-0.1871,0,-0.1132,-0.1225,-0.128,-0.1313,-0.1417,-0.146,-0.1515,-0.16,-0.1644,-0.1732,-0.1772,-0.183,-0.1865,-0.1883,-0.1903,-0.189,-0.1951,-0.1932,-0.183,-0.1823,-0.1893,-0.1886,-0.1958,-0.1958,-0.1958,-0.1958,-0.1957,0,-0.1121,-0.1172,-0.1269,-0.1301,-0.1364,-0.1441,-0.1511,-0.1572,-0.1655,-0.1701,-0.1779,-0.1821,-0.1882,-0.1925,-0.1927,-0.1895,-0.1968,-0.1835,-0.1823,-0.1917,-0.1912,-0.1898,-0.189,-0.1959,-0.1959,-0.1959,-0.1958,0,-0.1075,-0.1143,-0.121,-0.1315,-0.135,-0.1392,-0.1496,-0.1535,-0.1626,-0.1691,-0.1717,-0.1825,-0.1868,-0.1921,-0.1962,-0.191,-0.1902,-0.1873,-0.1982,-0.1977,-0.1757,-0.1752,-0.1754,-0.175,-0.1747,-0.1744,-0.1742,0,-0.1059,-0.1088,-0.1198,-0.1227,-0.1278,-0.1351,-0.1391,-0.1498,-0.1539,-0.1676,-0.1695,-0.1785,-0.1838,-0.1812,-0.1871,-0.1868,-0.1844,-0.1831,-0.1773,-0.1745,-0.1735,-0.1735,-0.1735,-0.1737,-0.1736,-0.1735,-0.1734,0,-0.1017,-0.106,-0.1106,-0.1159,-0.1211,-0.1266,-0.1338,-0.1357,-0.1473,-0.158,-0.162,-0.1649,-0.1703,-0.1731,-0.1744,-0.174,-0.1832,-0.1796,-0.1802,-0.1748,-0.1724,-0.1717,-0.1721,-0.1723,-0.1724,-0.1725,-0.1726,0,-0.0975,-0.0986,-0.1035,-0.1075,-0.1134,-0.1155,-0.1211,-0.126,-0.1315,-0.1467,-0.1479,-0.1582,-0.1682,-0.1667,-0.1682,-0.1665,-0.163,-0.157,-0.1587,-0.1601,-0.1528,-0.1474,-0.1384,0,0,0,0,0,-0.0921,-0.0917,-0.0945,-0.0983,-0.1035,-0.1068,-0.1161,-0.122,-0.1344,-0.1327,-0.1396,-0.1435,-0.146,-0.1525,-0.1472,-0.1608,-0.1634,-0.154,-0.1573,-0.1659,-0.1672,-0.16,0,0,0,0,0,0,-0.0882,-0.09,-0.0909,-0.0892,-0.0898,-0.0944,-0.0996,-0.1082,-0.1088,-0.1219,-0.1243,-0.1341,-0.1391,-0.1463,-0.144,-0.1456,-0.1445,-0.1608,-0.1604,-0.1652,-0.1664,-0.1674,-0.1604,0,0,0,0,0]},{"header":{"parameterUnit":"m.s-1","parameterCategory":2,"la1":30.2991,"la2":30.254,"lo1":-89.0895,"lo2":-89.0444,"dy":0.0017,"dx":0.0017,"nx":28,"ny":28,"refTime":"2024-03-18T09:00:00:Z","depth":"4","parameterNumber":3,"parameterNumberName":"V-component_of_CURRENTS"},"data":[0,0,0,0,0,0,0,0,0,0,0,0,0,0,0,0,0,0,0,0,0,0,0,0,0,0,0,0,0,0,0,0,0,0,0,0,0,0,0,0,0,0,0,0,0,0,0,0,0,0,0,0,0,0,0,0,0,0,0.0116,0.0117,0,0.0166,0.0167,0.0167,0.0199,0.0199,0.0199,0.02,0.0276,0.0278,0.028,0,0,0,0,0,0,0,0,0,0,0,0,0,0.008,0.0081,0.0116,0.0117,0.0118,0.0166,0.0167,0.0167,0.0199,0.0199,0.02,0.02,0.0276,0.0278,0.028,0,0,0,0,0,0,0,0,0,0,0,0,0,0.0109,0.0081,0.0116,0.014,0.0142,0.0166,0.0167,0.0167,0.0199,0.0199,0.02,0.02,0.0275,0.0278,0.028,0.029,0,0,0.0289,0.029,0,0,0,0,0,0,0,0,0.0107,0.011,0.0136,0.0138,0.0141,0.0177,0.0182,0.021,0.0199,0.0177,0.02,0.02,0.0246,0.0251,0.0258,0.0293,0.0297,0.0289,0.0291,0.0292,0.0293,0,0,0,0,0,0,0,0.0105,0.0108,0.0135,0.0136,0.014,0.0159,0.0163,0.0188,0.0209,0.0179,0.0181,0.0188,0.0248,0.0255,0.026,0.0298,0.0289,0.0291,0.0293,0.0294,0.0346,0.0346,0,0,0,0,0,0,0.0098,0.0106,0.0134,0.0137,0.0126,0.0159,0.0164,0.0165,0.0208,0.0215,0.0187,0.0189,0.0251,0.0257,0.0263,0.0271,0.0292,0.0294,0.0296,0.0347,0.0346,0.0346,0,0,0,0,0,0,0.0097,0.01,0.0132,0.0124,0.0129,0.0159,0.016,0.0166,0.0174,0.0214,0.0222,0.0191,0.0251,0.0259,0.0283,0.0275,0.0295,0.0298,0.0347,0.0346,0.0346,0.029,0,0,0,0,0,0,0.0096,0.0099,0.0095,0.0123,0.0129,0.014,0.016,0.0166,0.0178,0.0181,0.022,0.0227,0.0252,0.0278,0.0285,0.0279,0.03,0.0347,0.0347,0.0346,0.0293,0.0288,0.0284,0,0,0,0,0,0.0094,0.0086,0.0094,0.0098,0.0123,0.014,0.0144,0.0167,0.0178,0.0177,0.0205,0.0226,0.0281,0.028,0.0289,0.0282,0.0347,0.0347,0.0346,0.0294,0.0289,0.0285,0,0,0,0,0,0,0.007,0.0089,0.0099,0.0097,0.0115,0.0145,0.0147,0.0163,0.0184,0.0188,0.0225,0.0234,0.025,0.0275,0.0274,0.0297,0.0317,0.0318,0.0275,0.027,0.0266,0.0259,0.0302,0,0,0,0,0,0.0062,0.006,0.0084,0.0084,0.009,0.0118,0.0127,0.0142,0.0166,0.0176,0.0203,0.0232,0.0254,0.0269,0.0292,0.0306,0.0332,0.0308,0.0304,0.03,0.03,0.0332,0.033,0.0344,0.0344,0.0344,0,0,0.0053,0.0064,0.0063,0.0078,0.0094,0.0093,0.0124,0.0134,0.0135,0.0181,0.0189,0.0218,0.0254,0.0267,0.0277,0.0288,0.0308,0.0299,0.0296,0.0298,0.0331,0.033,0.0329,0.0344,0.0344,0.0344,0,0,0.0033,0.0043,0.0034,0.0043,0.0062,0.0076,0.0077,0.0103,0.0116,0.0129,0.016,0.0186,0.0218,0.0243,0.026,0.0249,0.0284,0.0255,0.0231,0.0262,0.0261,0.0261,0.0283,0.0285,0.0255,0.0255,0.0255,0,0.0022,0.0012,0.0034,0.0028,0.0029,0.0064,0.0052,0.0069,0.01,0.011,0.0123,0.0174,0.0206,0.0227,0.0223,0.024,0.0261,0.0245,0.0256,0.0256,0.0257,0.028,0.0283,0.0252,0.0252,0.0253,0.0253,0,-0.0003,-0.0013,-0.0018,-0.0019,-0.0015,-0.0017,0.0005,0.0014,0.0033,0.0056,0.008,0.0124,0.0156,0.0169,0.0194,0.0212,0.0226,0.0244,0.0266,0.0252,0.0278,0.0282,0.0248,0.0249,0.025,0.0251,0,0,-0.002,-0.0035,-0.0036,-0.0053,-0.0041,-0.0043,-0.0042,-0.003,-0.003,0.0008,0.0015,0.0061,0.0093,0.0115,0.0152,0.0183,0.0204,0.0212,0.0215,0.023,0.0266,0.0259,0.0263,0.0224,0.0224,0.0225,0.0279,0,-0.0047,-0.008,-0.0076,-0.011,-0.0128,-0.0105,-0.0111,-0.0093,-0.0068,-0.0052,0.0005,0.0026,0.007,0.0084,0.0122,0.0185,0.0214,0.0187,0.0282,0.0285,0.0276,0.0267,0.0226,0.0282,0.0283,0.0284,0.0285,0,-0.0074,-0.0095,-0.0135,-0.0166,-0.0171,-0.0185,-0.0189,-0.0185,-0.0146,-0.0127,-0.0085,-0.0039,0.0016,0.005,0.0153,0.0133,0.0193,0.0243,0.0246,0.0263,0.0285,0.0303,0.0293,0.0292,0.0292,0.0291,0.029,0,-0.0103,-0.014,-0.0178,-0.0186,-0.0209,-0.0223,-0.0229,-0.0206,-0.0208,-0.0168,-0.0165,-0.0088,-0.0057,0.0034,0.0143,0.0148,0.0253,0.0272,0.0321,0.0321,0.0336,0.0336,0.0337,0.0337,0.0337,0.0337,0.0336,0,-0.0135,-0.0168,-0.0199,-0.0219,-0.0267,-0.0262,-0.0295,-0.0285,-0.027,-0.028,-0.0204,-0.0192,-0.006,0.002,0.0124,0.0234,0.024,0.0315,0.0335,0.031,0.0307,0.0339,0.0338,0.0339,0.0338,0.0338,0.0337,0,-0.0161,-0.0179,-0.0231,-0.0268,-0.0284,-0.0314,-0.0347,-0.0365,-0.0345,-0.0355,-0.0347,-0.0267,-0.0166,-0.0032,0.0114,0.0196,0.0311,0.0347,0.0302,0.032,0.0363,0.0359,0.0404,0.0404,0.0404,0.0404,0.0404,0,-0.0178,-0.0206,-0.0267,-0.0302,-0.0323,-0.0367,-0.0398,-0.0401,-0.0416,-0.0402,-0.0408,-0.0324,-0.0257,-0.0059,0.009,0.0282,0.031,0.0367,0.0374,0.0355,0.037,0.0366,0.0362,0.0405,0.0405,0.0405,0.0405,0,-0.021,-0.0231,-0.0268,-0.0336,-0.0386,-0.0444,-0.0483,-0.0504,-0.0508,-0.0497,-0.0465,-0.036,-0.025,-0.0078,0.0069,0.0211,0.0332,0.0369,0.037,0.0377,0.0356,0.037,0.0366,0.0405,0.0405,0.0405,0.0405,0,-0.0229,-0.026,-0.0305,-0.0366,-0.0435,-0.0499,-0.0522,-0.0543,-0.0556,-0.0537,-0.0527,-0.04,-0.0322,-0.0115,0.0025,0.0161,0.0199,0.0245,0.0253,0.0254,0.0201,0.0152,0.0152,0,0,0,0,0,-0.024,-0.0271,-0.0332,-0.0403,-0.0474,-0.0513,-0.0569,-0.0582,-0.0592,-0.0582,-0.0555,-0.0451,-0.0252,-0.0154,-0.0022,0.004,0.023,0.02,0.0288,0.0409,0.0408,0.0371,0,0,0,0,0,0,-0.0247,-0.0296,-0.0327,-0.042,-0.0474,-0.0553,-0.0594,-0.0606,-0.0589,-0.0579,-0.047,-0.0418,-0.0214,-0.0331,-0.002,0.0023,0.0097,0.0299,0.0302,0.0409,0.0409,0.0408,0.037,0,0,0,0,0]}]]